GFSSE_850_dewp_324.txt.gz
Dewpoint
1 1 8 8 6 6 5 9 8 8 9 9 8 7 8 8 7 9 7 6 5 2 -1 -2 5 7 8 8 9 7 6 7 4 -1 -1 3 1 -1 -1 6 7 9 10
1 2 4 6 8 7 5 5 6 8 8 10 9 9 8 8 8 8 9 8 6 5 3 3 7 9 10 10 10 9 9 9 6 6 -1 -2 0 3 1 -0 -0 -0 1
7 2 3 4 3 2 2 1 3 5 5 6 7 9 9 9 9 8 8 9 8 7 6 4 8 9 10 11 10 9 9 9 10 8 2 -1 -2 -0 2 2 0 0 0
10 4 3 3 3 3 2 1 1 2 3 3 3 4 6 7 7 7 7 8 9 8 8 6 5 9 10 11 11 11 10 10 10 8 6 1 -1 -2 -0 1 1 2 1
10 11 11 11 9 6 3 2 1 2 2 2 2 3 3 4 5 5 5 6 7 8 8 5 4 9 10 10 10 11 10 10 9 9 9 5 2 -1 -3 -3 -3 -2 -1
10 10 11 11 12 11 11 6 3 2 2 2 3 8 7 5 7 5 5 4 4 6 8 8 6 6 8 9 10 10 10 10 10 10 10 9 5 2 -1 -3 -4 -4 -4
10 10 10 10 10 10 11 11 11 8 3 4 7 8 9 9 9 9 8 6 4 3 4 6 8 7 7 8 9 10 10 9 9 10 11 11 8 4 1 -1 -4 -4 -5
10 10 10 9 9 9 9 9 9 11 10 4 8 11 11 11 11 11 10 8 6 5 3 1 2 5 6 7 7 8 10 10 8 8 9 10 10 6 3 2 -1 -3 -4
7 9 10 10 9 8 7 6 6 7 8 10 8 9 10 11 11 11 9 9 7 7 7 6 6 3 1 4 6 7 8 10 9 8 9 9 10 7 6 4 2 0 -3
2 6 8 8 8 6 5 2 -1 -7 -2 6 10 9 10 10 10 10 10 10 10 9 9 9 10 10 8 2 2 5 8 9 9 9 9 10 10 8 8 6 5 3 1
-0 5 5 5 5 3 -1 -6 -11 -16 -14 -7 6 9 9 9 9 8 8 8 8 10 10 9 9 10 10 10 5 3 7 8 9 9 10 9 10 10 9 9 7 6 5
-6 -1 4 4 3 -2 -8 -10 -14 -19 -19 -16 -10 -3 2 5 6 7 6 6 6 6 7 9 10 9 10 10 10 7 6 8 8 8 10 9 10 10 10 10 9 8 7
-13 -8 -3 -3 -6 -7 -9 -13 -16 -19 -19 -18 -17 -16 -16 -16 -15 -17 -17 -18 -17 -16 -13 -11 -1 7 8 9 8 9 10 9 8 8 7 8 9 10 10 9 10 10 9
-11 -8 -7 -6 -6 -8 -11 -15 -20 -21 -20 -20 -19 -19 -20 -21 -22 -22 -22 -23 -24 -24 -24 -23 -22 -19 -16 -6 5 9 9 9 9 9 8 8 8 10 11 10 10 9 10
-10 -8 -5 -7 -8 -10 -12 -15 -20 -26 -28 -28 -28 -29 -29 -30 -30 -29 -30 -31 -32 -32 -32 -31 -30 -27 -24 -22 -20 -19 -14 -2 7 8 10 10 9 8 9 10 10 9 10
-10 -9 -6 -7 -7 -7 -10 -8 -12 -20 -27 -29 -28 -26 -25 -24 -23 -22 -22 -21 -21 -21 -22 -26 -26 -28 -26 -18 -19 -16 -16 -16 -13 1 7 10 10 10 9 10 10 10 10
-11 -10 -7 -5 -5 -6 -6 -5 -9 -12 -14 -15 -14 -12 -11 -11 -11 -11 -12 -13 -12 -12 -14 -16 -17 -19 -9 2 1 3 2 3 4 5 7 9 9 10 10 9 8 8 9
-13 -9 -5 -5 -4 -5 -5 -4 -5 -8 -8 -8 -7 -7 -7 -6 -5 -6 -7 -7 -7 -8 -9 -11 -14 -14 -11 4 3 2 5 6 6 8 7 8 9 10 10 10 10 9 9
-13 -9 -7 -6 -5 -6 -5 -3 -4 -5 -5 -4 -3 -3 -3 -3 -2 -1 -2 -3 -3 -5 -7 -7 -9 -12 -13 -4 2 2 1 2 2 1 1 1 2 4 6 7 9 9 9
-10 -10 -8 -7 -7 -6 -5 -3 -3 -4 -5 -3 -2 -2 -2 -2 -1 0 -1 -2 -4 -5 -6 -6 -5 -7 -10 -12 -8 0 1 -1 -5 -1 -3 -5 -9 -4 -2 1 4 6 9
-7 -7 -8 -7 -7 -6 -5 -4 -3 -4 -4 -2 -1 -1 -1 -1 -1 -1 -1 -1 -2 -2 -1 -1 -2 -1 -3 -8 -11 -13 -3 -6 1 -6 -7 -12 -8 -15 -12 -5 -0 2 7
-7 -5 -8 -7 -6 -6 -4 -5 -3 -4 -3 -2 -2 -1 -1 -1 -1 0 0 0 0 -0 1 0 0 -0 1 -0 -3 -3 -3 -9 -7 -7 -7 -10 -11 -11 -13 -11 -0 7 7
-5 -6 -6 -8 -7 -6 -5 -4 -3 -4 -2 -1 -1 -2 -2 -1 0 1 1 1 1 1 1 1 -0 0 1 1 0 0 1 0 0 -2 -2 -4 -4 -6 -8 -11 -8 3 5
-4 -5 -4 -7 -9 -8 -4 -3 -4 -3 -3 -2 -1 -1 -0 -0 0 0 -0 -1 -1 -2 -4 -5 -4 -3 -2 -0 0 1 0 1 1 -2 -2 -3 -2 -1 -2 -5 -9 -2 3
-3 -4 -5 -6 -4 -3 -3 -2 -2 -2 -2 -1 0 0 -0 -1 -2 -4 -6 -8 -11 -13 -14 -15 -14 -10 -4 -1 -0 0 0 0 1 1 1 1 -2 -1 -2 -1 -1 -4 -6
-3 -3 -4 -6 -3 -2 -1 -1 -1 -1 -1 0 0 -1 -2 -4 -6 -9 -12 -12 -15 -18 -21 -22 -20 -19 -17 -9 -4 -3 -3 -3 -2 -3 -2 -3 -2 -3 -3 -3 -1 -2 -2

GFSSE_850_dewp_327.txt.gz
Dewpoint
1 2 6 7 7 6 6 8 7 8 10 10 9 9 9 7 8 7 6 6 8 2 6 9 9 9 10 10 9 9 9 5 0 -0 3 2 0 -1 2 5 7 9 8
5 2 3 3 3 1 -0 0 4 5 7 9 9 9 7 7 7 8 7 6 7 4 6 9 10 10 10 10 10 9 9 9 5 -1 -2 -0 2 2 0 -0 -0 0 1
7 3 4 3 2 1 -0 -0 2 3 3 5 6 7 7 7 7 7 7 6 6 6 2 8 9 10 10 10 10 10 9 9 8 3 -1 -1 0 3 4 2 1 0 0
10 10 9 9 6 2 1 -0 1 1 2 2 2 3 5 6 6 5 7 8 8 8 6 4 8 10 10 10 10 9 9 8 9 8 4 1 5 0 3 4 4 4 3
9 11 11 11 10 10 5 2 1 1 1 2 3 3 3 3 3 3 3 6 8 8 7 6 7 9 10 10 10 10 10 8 9 10 9 5 5 1 0 1 2 3 2
10 10 10 10 10 10 11 11 7 2 2 5 6 7 7 6 6 6 3 3 3 6 8 7 6 6 9 9 10 10 10 9 9 9 10 9 5 2 0 -1 -0 5 0
10 9 9 9 9 10 10 9 10 10 5 7 10 9 9 10 10 10 9 5 5 3 3 5 7 7 5 7 9 9 10 9 9 9 10 10 8 5 2 0 -2 -3 -3
9 10 10 9 9 9 7 7 6 8 10 7 9 11 11 11 11 11 9 9 7 7 5 4 3 3 5 5 6 8 9 9 8 8 9 10 10 7 4 2 1 -2 -4
4 8 9 9 9 7 4 -0 -3 -4 4 9 9 10 11 11 10 10 10 10 9 8 8 8 9 8 6 3 4 6 7 9 10 8 9 9 10 8 7 5 3 2 -1
2 6 8 7 6 3 -4 -12 -14 -14 -8 2 9 10 10 10 10 9 8 8 8 9 10 9 9 10 10 10 6 3 6 8 9 9 9 9 10 9 9 8 5 4 3
-0 3 5 4 2 -4 -12 -13 -17 -17 -14 -4 4 6 7 7 8 7 7 6 6 5 6 8 9 9 9 10 10 8 5 8 8 9 10 10 9 10 10 9 8 6 5
-5 -1 1 1 -5 -10 -13 -16 -18 -18 -17 -14 -14 -14 -16 -15 -16 -17 -16 -18 -17 -10 -6 -4 -0 6 9 9 10 10 9 8 9 8 8 9 9 10 10 10 9 8 8
-10 -7 -7 -7 -9 -12 -16 -19 -20 -20 -18 -18 -19 -20 -20 -21 -22 -23 -24 -25 -25 -25 -25 -24 -23 -20 -12 -0 6 8 8 9 9 9 9 8 8 9 10 10 9 10 10
-7 -7 -7 -8 -10 -13 -16 -22 -26 -26 -26 -28 -29 -30 -30 -30 -31 -31 -31 -30 -30 -31 -32 -32 -31 -30 -27 -25 -22 -17 -8 6 8 8 9 9 8 8 9 10 10 10 10
-9 -7 -8 -8 -10 -12 -14 -20 -27 -29 -30 -30 -28 -25 -23 -21 -19 -17 -17 -17 -17 -18 -19 -22 -24 -25 -25 -22 -21 -21 -20 -16 -11 3 7 9 10 9 8 8 10 10 9
-10 -8 -8 -6 -8 -8 -9 -16 -21 -20 -17 -15 -13 -12 -11 -11 -11 -11 -11 -10 -11 -13 -14 -15 -16 -14 -9 -6 -4 -2 -2 -3 0 3 6 8 9 10 10 9 9 9 10
-11 -9 -7 -5 -7 -6 -6 -10 -11 -11 -11 -10 -10 -9 -7 -7 -7 -7 -7 -7 -7 -8 -10 -12 -13 -13 -0 2 2 3 4 6 6 7 7 8 8 9 10 10 10 9 9
-11 -8 -6 -4 -7 -5 -4 -6 -6 -7 -7 -6 -5 -4 -4 -3 -4 -6 -6 -7 -6 -6 -7 -9 -11 -12 -11 1 2 3 3 3 3 4 5 5 6 6 7 9 9 10 10
-13 -9 -7 -6 -6 -5 -4 -4 -5 -4 -3 -3 -3 -2 -2 -2 -3 -4 -4 -3 -5 -5 -5 -4 -6 -9 -10 -10 0 1 0 0 -0 -1 -1 -1 -1 1 2 2 4 6 9
-12 -9 -8 -6 -6 -6 -4 -4 -5 -4 -2 -2 -2 -3 -3 -4 -3 -3 -3 -4 -5 -6 -6 -6 -5 -4 -8 -11 -11 -10 -0 -1 -4 -2 -6 -7 -6 -10 -9 -4 -1 2 6
-9 -9 -9 -8 -7 -6 -5 -4 -4 -4 -3 -3 -3 -3 -3 -3 -2 -2 -2 -3 -5 -5 -5 -7 -8 -9 -2 -6 -2 -5 -9 -4 -5 -3 -5 -7 -10 -12 -12 -14 -4 5 5
-8 -8 -9 -9 -8 -7 -5 -5 -4 -4 -3 -3 -3 -3 -3 -2 -1 -2 -2 -3 -5 -7 -10 -11 -12 -13 -4 -7 -0 -1 -3 -3 -5 -2 -3 -4 -5 -5 -6 -10 -10 2 5
-6 -7 -8 -10 -8 -7 -5 -5 -4 -4 -3 -3 -2 -1 -1 -1 -2 -3 -4 -6 -9 -11 -11 -12 -15 -18 -14 -5 -4 1 -1 -2 -0 -0 -0 -1 -2 -2 -0 -1 -7 -6 2
-5 -6 -7 -9 -8 -7 -6 -4 -3 -4 -3 -2 -1 -1 -0 -1 -2 -4 -6 -10 -11 -11 -12 -16 -22 -25 -26 -18 -5 -2 1 2 1 -2 -2 -1 0 0 0 -1 -0 -2 -5
-4 -5 -7 -8 -8 -8 -6 -4 -4 -3 -2 -2 -1 0 0 -2 -4 -7 -10 -11 -11 -13 -17 -22 -26 -27 -26 -22 -16 -8 -4 -2 1 -0 -2 -3 -3 -2 -1 -2 -2 -0 -1
-4 -4 -5 -6 -7 -5 -4 -3 -2 -2 -1 -0 0 0 -1 -3 -6 -10 -11 -12 -14 -18 -22 -24 -25 -25 -22 -20 -18 -15 -6 -6 -5 -4 -5 -6 -4 -5 -5 -2 -2 -0 -1

GFSSE_850_dewp_333.txt.gz
Dewpoint
7 10 1 0 -1 -1 -0 6 7 9 9 9 8 8 7 7 7 8 9 6 5 7 7 6 7 8 8 8 6 6 2 -2 -1 2 2 1 4 7 8 11 13 11 3
8 10 2 1 0 -1 -1 3 4 5 7 8 8 8 7 7 7 7 8 10 6 7 9 9 9 9 9 9 9 8 7 1 -3 2 9 11 2 2 4 8 11 2 3
10 12 10 6 2 1 -0 1 2 3 3 3 5 6 7 6 6 7 7 7 7 3 7 9 10 10 10 10 10 9 9 8 5 8 10 12 8 2 2 3 2 2 2
12 12 11 10 10 7 2 1 1 1 2 3 4 7 6 4 3 3 5 7 7 6 3 4 9 10 9 10 10 9 8 9 9 10 9 8 10 -4 -3 -0 4 5 6
12 11 10 10 10 10 10 7 2 3 4 7 8 8 5 7 7 6 3 3 5 7 7 5 4 8 9 9 10 10 8 7 9 10 10 8 10 6 -3 -4 4 4 9
12 9 9 9 9 9 8 9 10 5 8 8 9 10 10 10 10 10 8 6 4 3 4 5 6 5 5 8 9 9 10 8 9 11 9 10 11 5 1 -1 -1 -2 -2
12 10 9 9 9 8 5 3 5 10 7 9 11 11 11 10 10 10 9 9 8 6 6 4 3 4 5 5 4 7 9 8 6 9 8 9 10 7 4 1 -1 -2 -4
10 11 9 9 9 7 1 -6 -7 2 9 10 11 11 11 10 10 9 8 8 9 9 9 7 6 7 6 4 3 4 5 8 8 10 8 9 12 8 7 4 2 0 -3
10 10 9 8 6 -0 -13 -17 -13 -6 3 8 10 10 10 9 8 8 7 7 6 6 6 8 9 9 8 9 9 6 2 4 4 9 7 9 10 8 9 8 6 4 2
7 7 7 6 4 -5 -10 -16 -12 -8 -4 0 3 4 2 -2 -6 -8 -12 -14 -16 -10 -5 -0 1 4 9 9 8 9 9 3 10 10 9 10 9 9 10 9 8 7 5
5 5 5 4 1 1 2 -8 -3 -9 -7 -6 -3 -11 -4 -6 -6 -8 -24 -25 -26 -24 -24 -24 -24 -21 -8 2 3 7 9 8 8 8 10 10 9 10 10 10 10 9 8
2 3 3 2 0 -1 -1 2 0 -1 -2 -1 -2 -4 -4 -6 -7 -5 -7 -9 -7 -6 -4 -3 -5 -1 1 0 1 2 6 7 8 9 9 9 9 9 10 10 11 9 9
1 1 2 -2 -7 -2 -4 -1 -2 -2 -3 -3 -6 -2 -2 -2 -2 -3 -3 -3 -3 -3 -3 -1 0 1 3 3 2 3 4 4 7 10 10 9 9 9 9 11 11 11 10
0 1 0 -2 -15 -5 -4 -4 -3 -4 -3 -1 0 -1 0 0 0 -0 -0 -1 -1 -2 -1 -2 -1 1 2 3 3 2 2 2 4 6 7 6 9 10 10 10 9 10 10
-0 1 -0 0 -1 -4 -3 -2 -2 -2 -1 1 2 0 2 1 1 1 1 -0 0 0 0 -0 -1 -1 0 1 3 2 2 2 3 3 4 2 3 8 10 11 11 10 9
-0 1 1 1 -2 -5 -5 -1 -1 -0 0 1 2 3 2 3 2 1 1 1 1 1 1 1 0 -1 -2 -1 1 2 3 3 3 3 2 3 2 4 7 8 10 10 10
-0 1 2 2 1 -1 -1 -0 -0 -0 0 1 2 -3 -2 2 3 2 2 2 2 1 1 1 1 0 -0 -1 -3 -1 0 1 2 2 1 2 2 1 1 3 5 7 9
-1 1 1 -1 2 1 1 0 0 1 1 1 2 2 -0 1 3 2 2 3 3 1 1 1 1 1 1 -0 -2 -3 -3 -1 1 1 1 2 2 1 1 1 1 2 4
-1 0 1 1 2 2 2 1 2 2 1 1 2 2 -3 -0 0 3 3 3 2 0 0 0 0 0 1 0 -1 -3 -3 -2 -2 1 1 2 1 1 1 1 0 2 3
-1 1 2 2 2 2 2 2 1 1 1 1 2 1 -2 2 0 3 2 1 -1 0 -0 -0 -2 -1 -2 -1 -1 -3 -3 -2 -0 -0 1 -0 1 2 1 1 2 2 2
-1 0 1 1 2 2 2 1 1 1 1 2 3 -2 -3 -4 -5 -6 2 -2 -8 -2 -2 -4 -5 -3 -4 -5 -3 -3 -3 -5 -2 -0 -0 -2 0 1 1 0 1 1 1
-1 -0 0 -0 2 2 1 0 -0 -0 1 2 3 -3 -3 -3 -3 -1 -7 -8 -10 -7 -7 -10 -9 -8 -5 -6 -5 -4 -5 -5 -3 -4 -2 -1 0 -0 -0 -0 1 1 1
-2 -0 -1 -1 1 1 -0 -0 0 1 2 2 3 4 -1 -2 -2 -4 -6 -8 -10 -9 -9 -9 -7 -10 -5 -6 -6 -6 -7 -6 -5 -4 -4 -3 -3 -3 -3 -1 -1 -1 0
-1 -1 -1 -1 -0 1 0 -1 -0 -1 -1 1 3 3 -0 -1 -2 -3 -6 -8 -10 -9 -8 -7 -6 -9 -8 -6 -7 -8 -6 -6 -6 -7 -7 -4 -7 -7 -8 -5 -3 -4 -2
-1 -1 -0 -1 -1 -0 0 0 -0 0 -1 3 3 0 -0 -1 -1 -3 -6 -8 -9 -6 -7 -10 -10 -9 -6 -5 -6 -6 -7 -7 -7 -7 -8 -8 -8 -8 -9 -8 -8 -7 -1
-0 1 1 -0 -1 0 1 2 1 1 1 3 3 3 2 0 -1 -3 -7 -8 -5 -6 -8 -10 -11 -5 -4 -3 -4 -5 -7 -7 -7 -7 -7 -8 -8 -9 -9 -9 -9 -8 -8

GFSSE_850_dewp_336.txt.gz
Dewpoint
9 6 -0 -1 -1 -2 2 6 7 9 9 9 8 7 7 7 6 7 9 6 6 7 8 9 9 8 8 8 8 5 0 -3 -2 4 8 -1 -0 4 8 12 12 4 1
10 10 5 0 -0 -2 -1 2 4 4 5 5 6 6 6 6 6 6 6 7 3 7 8 9 9 9 9 9 8 7 4 -1 8 9 11 10 6 -1 -1 10 10 2 6
12 12 10 8 2 -1 -0 1 1 2 3 3 5 6 4 3 3 5 7 6 6 2 4 7 9 9 9 9 9 8 8 6 8 9 11 12 9 -3 -0 1 1 1 1
10 11 10 10 10 8 3 0 0 3 6 7 9 8 5 7 6 3 3 5 6 6 4 2 5 9 9 9 10 9 7 7 10 11 12 12 12 8 -4 -0 2 1 2
11 9 9 9 10 9 9 9 3 3 6 8 8 8 9 10 10 9 6 3 3 4 5 6 4 4 7 8 9 10 8 6 11 11 10 10 8 11 0 -5 3 5 5
11 9 9 9 9 9 7 7 10 6 7 9 9 10 11 10 10 9 9 9 5 4 4 3 3 4 4 3 5 8 8 5 9 9 10 11 9 7 3 0 -4 -4 -1
11 9 9 9 8 8 4 0 3 10 9 9 10 11 10 10 9 9 8 8 9 9 7 6 5 5 3 3 3 3 5 6 3 9 11 10 11 9 7 3 1 -1 -4
11 10 8 7 6 3 -6 -13 -10 1 9 10 10 10 10 9 8 8 7 6 6 6 7 8 9 8 7 8 6 2 2 3 1 8 11 11 9 9 9 8 5 2 1
10 10 9 6 -1 -10 -19 -19 -13 -6 1 6 7 7 5 -1 -4 -3 -7 -9 -9 -6 -3 1 1 5 8 8 8 8 6 0 6 8 10 11 11 10 9 9 8 7 4
9 8 7 5 -1 -12 -18 -17 -13 -10 -7 -6 -10 -8 -5 -3 -10 -23 -23 -24 -21 -18 -15 -22 -22 -17 -1 0 3 7 8 7 9 10 11 10 10 9 9 9 9 9 8
6 5 5 2 0 0 -3 -10 -3 0 0 -1 -2 -3 -6 -8 -6 -4 -4 -4 -5 -3 -1 -2 -1 -0 -2 1 1 2 5 7 8 10 10 9 9 9 9 10 10 10 9
3 4 3 2 -2 -1 1 0 0 -1 -10 -8 -5 -3 -2 -2 -2 -2 -2 -2 -2 -2 -1 0 1 2 -2 1 1 0 2 5 8 8 8 9 9 9 8 9 11 11 11
2 2 2 -10 -2 -2 -0 -1 -2 -2 -2 -1 -1 -0 -0 -1 -0 -1 -1 -1 -1 -1 -1 -1 -0 1 2 1 0 2 -1 3 3 4 5 6 8 9 10 10 10 11 11
1 2 0 -7 -9 -2 -2 -3 -3 -2 -0 -3 0 1 2 1 1 1 0 0 0 1 1 0 -1 -1 -0 1 1 2 2 1 -4 3 3 1 -2 1 8 10 11 10 10
1 1 0 -3 -12 -3 -2 -2 -1 -0 1 2 -2 1 2 1 1 1 1 1 1 1 1 1 0 0 -1 -2 -1 0 2 2 2 -1 3 2 1 0 1 5 8 10 11
1 1 1 0 -4 -2 -5 -4 -1 1 1 -3 -4 1 1 1 2 2 1 2 2 1 1 1 1 0 1 -1 -2 -2 -2 1 2 2 2 2 2 2 2 0 2 4 7
1 1 2 -1 -3 -8 -4 0 0 1 2 1 -7 -8 -5 0 2 2 0 2 1 1 -5 -4 -2 -2 1 0 -2 -3 -2 -2 -0 1 1 1 2 2 2 2 1 1 3
0 2 1 1 -5 1 -3 0 1 1 1 2 0 -8 -8 -5 2 3 -1 -1 1 -4 -10 -10 -8 -5 -1 -1 -2 -2 -3 -3 -2 -1 1 2 2 1 1 2 1 1 2
-0 1 1 1 2 -0 0 1 1 1 2 2 2 -2 1 -6 2 3 -5 -6 -1 -7 -8 -10 -10 -8 -4 -5 -8 -8 -4 -4 -2 -2 1 1 0 2 1 1 2 2 1
-1 1 1 1 1 1 2 -2 1 2 2 2 2 -4 1 -1 -4 1 -2 -8 -8 -7 -6 -6 -10 -10 -7 -9 -10 -10 -6 -5 -1 -0 -0 -0 -1 1 1 0 0 2 1
-2 1 2 2 2 2 -2 2 2 2 1 2 3 0 -4 -5 -5 -6 -6 -6 -7 -7 -7 -6 -8 -10 -9 -9 -8 -9 -9 -5 -2 -2 -2 -2 -1 1 -0 0 -0 1 1
-2 0 2 2 3 1 2 1 1 1 1 3 4 -3 -4 -4 -3 -3 -4 -5 -6 -8 -7 -6 -8 -10 -10 -8 -7 -7 -8 -10 -12 -14 -3 -3 -2 -4 -1 -3 -2 -1 -0
-2 -1 1 1 1 1 2 1 0 1 1 2 2 3 -3 -3 -2 -2 -3 -4 -6 -8 -6 -6 -8 -11 -11 -10 -8 -7 -7 -6 -8 -8 -10 -7 -5 -6 -7 -8 -5 -5 -2
-2 -1 1 0 0 1 0 0 0 1 1 2 3 4 0 -2 -1 -2 -3 -4 -6 -7 -5 -6 -10 -13 -10 -8 -10 -7 -7 -7 -7 -7 -7 -10 -8 -8 -8 -9 -8 -8 -8
-1 -1 -0 -0 -0 1 0 -0 -0 0 0 2 3 3 0 -0 -1 -1 -2 -5 -6 -6 -5 -8 -11 -14 -11 -7 -5 -6 -8 -6 -7 -7 -6 -6 -7 -8 -8 -8 -8 -9 -7
-1 -0 -0 -0 -0 0 1 -1 1 0 0 3 4 3 3 2 0 -1 -2 -4 -5 -5 -5 -8 -9 -12 -9 -6 -5 -7 -5 -5 -6 -7 -7 -7 -8 -8 -9 -10 -9 -9 -9

GFSSE_850_dewp_339.txt.gz
Dewpoint
9 8 -1 -3 -3 -2 3 4 6 7 7 7 7 6 6 6 6 6 7 4 6 7 8 8 8 8 8 7 6 2 -1 7 10 10 4 4 2 2 10 10 2 -0 -0
10 8 3 -1 -3 -2 -1 1 2 3 3 7 7 4 3 3 4 6 6 5 2 4 7 8 9 9 9 8 7 7 5 9 10 11 12 12 0 -0 0 9 5 0 -0
9 9 9 6 3 -1 -2 -2 -1 5 7 8 9 4 2 3 1 2 4 5 5 4 1 4 8 9 9 9 8 7 8 9 10 11 12 12 9 3 -3 -2 2 3 2
9 9 9 10 10 9 5 0 6 5 6 8 7 7 8 9 9 6 3 2 3 4 5 3 3 6 8 8 9 6 6 8 11 11 11 12 11 6 1 -5 -3 -0 5
10 9 9 9 9 9 9 9 4 3 5 7 8 9 10 10 9 9 8 7 4 3 2 3 4 3 3 5 6 8 7 6 8 9 10 10 11 6 4 0 -4 -3 -4
9 9 9 9 9 8 5 6 9 8 6 9 10 10 10 9 8 8 8 9 9 7 5 4 2 2 2 3 2 3 6 7 7 7 10 10 8 8 6 5 1 -3 -4
10 9 9 8 7 6 2 -1 2 9 10 9 10 10 9 9 8 7 6 5 5 6 8 8 8 6 5 5 3 2 2 4 5 7 10 10 10 8 9 7 5 2 -0
10 8 7 5 1 -7 -17 -17 -8 3 8 9 9 8 5 -2 -2 -4 -6 -8 -9 -7 -4 -2 0 5 8 7 7 6 4 5 7 9 10 11 11 10 9 9 8 8 4
9 8 6 -3 -12 -19 -19 -15 -8 -2 1 1 -2 -5 -7 -14 -15 -16 -17 -12 -6 -6 -15 -12 -12 -1 1 1 3 7 8 7 9 10 10 10 10 10 10 10 9 9 8
7 7 5 -3 -5 -13 -14 -13 -11 -9 -8 -9 -5 -11 -10 -6 -3 -3 -3 -4 -2 -1 -0 -1 -4 -3 -0 0 1 7 6 6 7 9 10 10 10 11 11 11 10 10 10
6 5 4 -4 -0 -1 -3 -6 -7 -8 -8 -4 -5 -4 -3 -3 -2 -1 -1 -1 -2 -1 0 -1 -1 -4 -3 -3 -2 2 4 7 7 7 7 7 8 9 9 10 11 11 11
4 5 3 -4 0 1 0 -1 -2 -9 -8 -4 -3 -4 -1 -1 -0 -0 -0 0 0 -2 -1 -1 0 0 0 -2 -8 -9 2 3 4 4 4 3 2 3 8 9 9 11 11
2 3 -2 -8 -2 0 0 -2 -3 -6 -8 -3 -1 -1 -1 -0 -0 -0 -0 0 1 0 -1 -1 -1 -1 -1 0 -2 -2 -4 -3 1 3 2 1 -2 -3 4 9 10 10 11
1 0 -4 -10 -5 -2 -2 -3 -3 -6 -6 -0 1 0 1 0 -0 0 1 -1 -2 -1 -2 -1 -0 -2 -2 -2 -2 -0 -2 -1 -1 -2 1 2 2 0 -2 -0 5 8 10
-1 1 -3 -12 -3 -2 -3 -4 -2 -4 -8 -3 -2 -1 -0 0 -2 -1 1 2 -1 -4 -6 -5 -3 -0 -1 -2 -3 -2 -0 -0 -1 0 1 1 2 1 2 1 -0 1 4
-0 -2 -4 -13 -9 -7 -7 -3 -2 -6 -10 -9 -8 -4 0 1 0 -4 -0 -1 -6 -11 -11 -9 -8 -1 -1 -5 -3 -3 -2 -1 -1 -1 0 1 1 1 1 1 0 -0 1
-1 -1 -7 -11 -9 -10 -3 -0 0 -3 -10 -12 -11 -8 -1 1 -1 -6 -3 -7 -9 -9 -10 -12 -12 -9 -10 -10 -9 -8 -5 -4 -2 -1 1 1 1 2 1 1 1 0 1
-1 -1 -5 -10 -10 -5 -2 -2 1 0 -3 -6 -8 -10 -2 0 -3 -8 -5 -5 -6 -5 -5 -7 -10 -11 -10 -11 -10 -9 -7 -4 -3 -0 1 0 -0 2 2 1 1 0 2
-1 -2 0 -2 -5 -2 -0 -1 -0 0 1 1 -2 -8 -8 0 -1 -5 -7 -6 -5 -5 -4 -4 -7 -10 -10 -10 -10 -10 -6 -2 -1 -0 -1 -0 -0 0 1 0 1 1 1
-2 -1 -1 0 -3 -1 -0 -1 1 2 1 2 1 -6 -8 -5 -1 -5 -5 -5 -5 -4 -4 -3 -4 -8 -10 -10 -10 -9 -8 -1 -1 -2 -1 -2 1 1 -0 -0 -0 0 0
-2 -1 -2 -0 -2 -2 -1 -2 -0 1 2 2 2 -8 -6 -5 -4 -4 -4 -4 -4 -4 -4 -3 -3 -4 -10 -10 -10 -9 -9 -10 -10 -13 -6 -3 -3 -4 -1 -2 -2 -2 -2
-3 -2 -2 -0 -0 -4 -5 0 1 1 2 2 2 -5 -6 -4 -3 -3 -3 -3 -4 -3 -4 -3 -3 -5 -9 -12 -11 -9 -9 -10 -10 -11 -13 -7 -7 -7 -7 -8 -6 -5 -5
-4 -2 -2 -1 1 -1 -1 1 1 2 1 3 3 -1 -5 -4 -3 -2 -2 -3 -4 -3 -4 -4 -5 -7 -10 -12 -11 -6 -5 -6 -7 -9 -12 -12 -12 -9 -8 -8 -8 -8 -8
-3 -3 -2 -0 1 0 -0 1 1 1 1 2 1 2 2 -1 -2 -1 -1 -2 -3 -4 -5 -5 -6 -8 -12 -13 -13 -12 -9 -8 -6 -6 -8 -11 -11 -11 -9 -8 -8 -9 -8
-2 -2 -2 -1 0 0 -0 1 0 0 0 1 2 3 3 2 -1 -0 -1 -2 -2 -4 -6 -5 -5 -8 -11 -11 -9 -10 -10 -12 -11 -6 -6 -9 -10 -11 -11 -11 -9 -9 -9
-2 -2 -2 -1 -0 -0 -0 1 1 -0 2 3 3 3 3 2 2 0 -1 -2 -2 -5 -6 -5 -6 -7 -7 -8 -8 -8 -8 -9 -8 -7 -6 -7 -8 -9 -9 -10 -11 -10 -10

GFSSE_850_dewp_345.txt.gz
Dewpoint
7 1 -1 -3 -3 -0 5 6 5 7 6 3 1 1 1 3 3 4 3 2 4 6 8 8 9 8 8 7 8 9 10 10 10 11 5 3 2 2 3 1 -1 -2 -1
8 7 1 -2 -2 -1 3 3 6 8 9 3 2 2 1 -0 0 2 3 3 2 1 5 8 8 9 9 8 9 9 10 11 11 11 11 9 7 0 -1 1 1 -0 -1
9 9 6 3 -1 -2 6 8 8 8 8 6 8 9 9 8 6 3 1 2 3 4 3 4 6 7 8 9 8 8 9 8 10 10 9 10 8 2 0 -0 1 0 -1
9 9 9 9 9 6 7 6 5 7 7 7 9 9 9 8 8 8 7 4 2 2 3 4 3 3 5 7 8 7 8 8 8 8 10 9 9 5 3 1 -0 -2 -3
9 9 9 9 8 8 10 8 6 7 8 9 10 9 8 7 6 5 6 7 8 6 5 3 3 4 5 3 4 6 6 6 7 6 10 9 9 7 6 3 1 -0 -2
9 8 8 8 8 5 4 9 8 8 10 10 9 7 5 3 0 -0 -0 -0 2 4 6 7 7 6 5 5 4 2 3 4 5 9 10 10 9 9 8 6 4 2 0
8 8 8 6 5 3 0 3 8 10 9 8 5 -1 -12 -13 -11 -9 -9 -9 -7 -5 -3 0 4 6 6 5 5 6 4 5 7 9 10 10 11 11 9 8 6 5 4
9 7 3 -3 -7 -10 -11 -5 2 7 7 2 -6 -12 -11 -8 -5 -5 -4 -4 -7 -7 -6 -0 1 2 2 4 6 7 7 8 9 10 10 10 10 11 11 10 9 8 7
5 -3 -12 -17 -18 -14 -8 -5 -1 0 -2 -7 -8 -5 -3 -3 -4 -4 -2 -1 -4 -4 -3 -2 -2 -1 -1 0 4 6 7 7 8 9 9 9 9 10 10 11 11 11 10
1 -3 -11 -18 -17 -12 -9 -7 -8 -10 -13 -8 -5 -4 -2 -2 -2 -3 -1 -1 -2 -3 -3 -4 -4 -4 -4 -4 -0 3 5 5 5 6 6 6 5 5 7 9 9 11 11
3 1 -7 -7 -9 -11 -10 -9 -7 -8 -8 -6 -4 -3 -2 -2 -2 -3 -2 -2 -2 -1 -2 -3 -3 -4 -3 -3 -3 -2 -2 -2 -3 -4 -5 -5 -6 -7 -5 3 8 10 10
2 0 -6 -3 -3 -4 -8 -15 -9 -7 -6 -2 -1 -1 -1 -1 -1 -1 -3 -3 -3 -2 -2 -3 -3 -4 -4 -3 -2 -1 -1 -2 -2 -2 -2 -1 -1 -3 -6 -6 1 7 9
2 0 -5 -2 -1 -2 -4 -9 -9 -7 -5 -2 -1 -1 -1 -2 -3 -5 -6 -7 -6 -5 -4 -4 -4 -6 -6 -4 -3 -2 -1 -1 0 -0 0 1 1 1 -0 -3 -4 -2 7
3 1 -4 -4 -2 -0 -3 -6 -7 -5 -3 -2 -2 -1 -1 -4 -5 -8 -12 -13 -13 -12 -12 -8 -6 -9 -7 -5 -5 -5 -4 -3 -1 1 1 1 1 1 1 1 -1 -2 -4
2 0 -10 -6 -2 -3 -3 -5 -7 -2 -1 -2 -2 -3 -4 -5 -5 -11 -12 -10 -10 -11 -12 -12 -12 -12 -11 -10 -9 -9 -7 -4 -2 1 2 1 1 1 2 1 1 3 -1
1 -2 -7 -10 -5 -4 -4 -5 -8 -3 -1 -2 -4 -4 -8 -7 -8 -9 -6 -5 -5 -6 -7 -8 -11 -11 -11 -10 -10 -9 -7 -4 -3 -0 2 0 2 2 2 1 0 0 -0
-1 -3 -9 -13 -6 -5 -5 -8 -9 -7 -4 -3 -3 -3 -8 -8 -6 -6 -5 -5 -4 -4 -4 -4 -5 -7 -9 -9 -9 -7 -3 -2 -1 1 1 0 1 2 1 1 0 0 0
-2 -3 -7 -13 -8 -6 -6 -7 -10 -9 -6 -4 -4 -4 -6 -7 -6 -5 -5 -4 -4 -3 -4 -4 -4 -4 -4 -6 -9 -9 -4 -2 -3 -4 -1 1 1 1 0 -0 1 1 1
-2 -4 -5 -13 -11 -11 -6 -4 -2 -4 -6 -9 -8 -5 -4 -4 -6 -5 -4 -3 -3 -3 -3 -3 -3 -3 -3 -3 -6 -8 -9 -10 -9 -10 -5 -3 -3 -3 -2 -1 -1 -1 -1
-2 -2 -3 -13 -14 -9 -5 -2 -0 -0 -1 -4 -6 -8 -6 -4 -5 -5 -4 -3 -3 -3 -3 -3 -3 -2 -2 -2 -3 -7 -8 -10 -9 -10 -9 -7 -6 -7 -7 -7 -6 -5 -5
-2 -2 -3 -10 -14 -10 -7 -2 -0 -0 -1 -2 -1 -2 -7 -5 -4 -4 -3 -3 -3 -3 -3 -3 -2 -2 -2 -2 -3 -4 -7 -9 -9 -9 -10 -9 -12 -10 -12 -9 -8 -8 -8
-2 -2 -2 -5 -9 -10 -7 -3 -2 -0 -0 0 1 1 -6 -6 -3 -3 -3 -2 -2 -3 -2 -2 -3 -3 -4 -4 -6 -8 -9 -9 -9 -11 -10 -13 -10 -13 -14 -13 -12 -10 -9
-2 -2 -2 -3 -5 -8 -6 -3 -1 1 1 1 1 2 2 -1 -3 -2 -2 -1 -2 -2 -2 -2 -3 -4 -5 -6 -8 -9 -9 -9 -11 -12 -15 -14 -14 -13 -12 -12 -12 -9 -6
-2 -2 -2 -2 -3 -5 -6 -5 -3 -0 1 0 1 2 3 1 1 2 1 0 -1 -1 -2 -3 -4 -5 -6 -6 -7 -8 -9 -8 -8 -7 -9 -14 -11 -11 -10 -9 -11 -12 -11
-2 -2 -3 -2 -2 -2 -4 -5 -0 1 1 2 2 2 3 3 3 2 2 1 0 -1 -3 -4 -5 -6 -6 -6 -6 -6 -6 -6 -6 -6 -5 -6 -11 -12 -10 -10 -8 -9 -11
-2 -2 -2 -2 -2 -1 -1 -4 0 1 1 2 2 2 3 4 3 3 2 1 -1 -3 -3 -4 -5 -6 -6 -6 -6 -5 -5 -4 -4 -4 -4 -4 -5 -5 -9 -10 -8 -7 -8

GFSSE_850_dewp_348.txt.gz
Dewpoint
4 -1 -2 -2 -0 3 6 6 7 8 5 0 -0 0 2 3 3 3 3 1 2 5 7 8 8 8 7 7 8 9 10 11 10 10 8 6 0 -1 -1 0 0 0 -1
7 3 -1 -2 -2 0 3 5 8 9 4 2 3 3 1 -1 -0 1 2 3 1 1 6 7 8 8 8 8 8 9 10 10 10 9 10 8 3 0 -1 0 1 0 0
8 7 5 -0 -2 0 7 8 8 7 4 5 7 8 8 8 6 3 0 1 3 3 3 4 6 7 8 7 7 8 8 8 8 9 9 9 5 4 1 -0 -1 1 0
9 9 9 8 6 7 5 6 5 5 6 8 9 8 7 7 7 8 7 5 3 3 3 4 4 3 4 6 7 7 7 8 7 8 10 9 7 6 4 2 -0 -2 -2
9 9 9 8 8 11 10 7 5 7 8 9 9 7 5 4 4 3 4 6 7 6 5 5 5 4 4 3 3 4 5 6 6 8 10 10 9 8 8 5 2 1 -1
9 8 8 8 7 6 7 8 8 9 9 8 5 -0 -3 -4 -5 -4 -3 -1 1 2 4 6 6 5 4 4 4 4 3 5 8 10 10 9 9 10 9 7 5 4 2
9 8 8 7 5 4 4 8 9 9 7 4 -3 -9 -10 -9 -8 -9 -9 -8 -7 -3 0 1 3 3 5 6 6 7 6 7 8 9 10 10 10 10 10 9 8 7 5
9 8 5 1 -3 -4 2 6 9 6 1 -5 -10 -11 -9 -7 -5 -5 -6 -7 -7 -7 -5 -2 0 1 1 4 6 7 8 9 10 10 10 10 10 10 11 11 10 10 9
7 0 -9 -14 -14 -10 -5 2 4 3 -4 -8 -8 -5 -5 -4 -3 -2 -3 -4 -4 -4 -5 -7 -8 -7 -5 -1 3 5 6 6 6 6 6 6 5 6 9 9 10 11 11
1 -8 -15 -13 -8 -6 -3 -4 -6 -8 -7 -8 -5 -4 -3 -3 -4 -2 -3 -4 -3 -3 -4 -5 -5 -6 -7 -5 -3 -1 0 1 -2 -3 -5 -5 -7 -7 -6 2 9 10 10
1 -6 -10 -10 -9 -7 -7 -8 -9 -10 -7 -5 -3 -2 -3 -3 -3 -4 -2 -2 -2 -2 -2 -3 -4 -4 -4 -5 -5 -4 -5 -5 -4 -3 -2 -1 -1 -1 -5 -8 -3 7 9
1 -3 -5 -6 -6 -8 -8 -6 -6 -4 -2 -1 -1 -1 -2 -2 -3 -4 -3 -3 -3 -3 -4 -4 -6 -6 -5 -5 -5 -5 -5 -3 -2 -1 0 1 1 4 1 -2 -4 -4 7
-0 -2 -4 -4 -4 -5 -10 -6 -5 -4 -1 -1 -1 -1 -2 -4 -5 -6 -7 -8 -7 -6 -5 -6 -10 -9 -7 -7 -8 -8 -5 -4 -2 -0 1 1 1 5 5 4 2 -4 -5
2 -1 -5 -4 -4 -5 -8 -9 -7 -4 -2 -1 -1 -2 -3 -5 -10 -13 -13 -12 -12 -10 -10 -11 -12 -11 -11 -10 -10 -10 -8 -5 -2 -1 1 1 -0 -0 2 5 5 5 -0
2 -1 -6 -6 -3 -3 -5 -6 -4 -3 -1 -1 -2 -3 -4 -7 -12 -9 -8 -7 -8 -9 -10 -11 -11 -10 -10 -10 -9 -9 -8 -6 -3 -0 1 0 0 0 1 0 5 5 5
2 -1 -7 -8 -4 -4 -5 -6 -3 -1 -2 -2 -4 -7 -6 -9 -8 -6 -5 -5 -5 -5 -5 -5 -7 -8 -8 -8 -8 -8 -6 -4 -2 0 1 0 1 1 1 1 1 3 3
1 -2 -6 -10 -6 -5 -5 -7 -5 -2 -2 -3 -3 -6 -8 -6 -6 -5 -5 -4 -3 -3 -3 -3 -3 -3 -4 -6 -7 -8 -7 -5 -3 -2 -2 -1 1 1 0 0 1 1 2
1 -2 -6 -10 -7 -5 -6 -7 -7 -6 -5 -3 -3 -5 -7 -6 -6 -5 -4 -4 -3 -3 -3 -3 -3 -3 -3 -3 -4 -6 -8 -9 -10 -10 -8 -5 -2 -1 -1 -0 1 0 1
1 -2 -5 -10 -9 -7 -6 -9 -9 -8 -8 -5 -3 -4 -4 -6 -6 -5 -4 -3 -3 -3 -3 -3 -3 -3 -2 -2 -3 -5 -7 -8 -9 -9 -10 -8 -6 -7 -6 -6 -4 -3 -2
0 -1 -3 -8 -10 -7 -5 -5 -6 -6 -7 -7 -7 -6 -4 -3 -5 -5 -4 -3 -3 -3 -3 -3 -2 -2 -2 -2 -2 -3 -6 -8 -9 -9 -10 -9 -10 -11 -10 -12 -12 -8 -8
-1 -1 -2 -6 -10 -10 -6 -5 -4 -3 -3 -3 -2 -4 -6 -5 -4 -4 -3 -3 -3 -2 -2 -2 -2 -2 -2 -2 -2 -3 -5 -9 -8 -9 -12 -11 -14 -14 -15 -15 -15 -14 -12
-1 -1 -1 -5 -11 -12 -7 -6 -3 -3 -2 -0 1 1 -5 -6 -4 -3 -3 -1 -1 -2 -2 -2 -2 -2 -2 -3 -5 -6 -7 -7 -9 -11 -12 -15 -15 -14 -12 -12 -13 -13 -9
-1 -1 -1 -3 -8 -9 -6 -4 -2 -1 0 0 1 2 2 1 -2 -2 2 1 1 1 0 0 -0 -1 -3 -5 -6 -6 -7 -9 -8 -10 -13 -14 -13 -13 -11 -9 -10 -11 -11
-0 -1 -1 -2 -4 -5 -6 -4 -3 -4 -2 -1 1 2 2 3 1 3 2 2 2 1 1 -1 -2 -2 -4 -5 -6 -6 -6 -6 -6 -6 -8 -7 -8 -8 -9 -8 -8 -7 -8
0 -0 -1 -2 -2 -3 -4 -4 -2 -1 0 1 1 2 3 3 3 3 2 2 2 1 -1 -3 -4 -5 -5 -5 -5 -5 -5 -5 -5 -4 -4 -4 -6 -7 -8 -8 -7 -6 -6
2 -0 -1 -1 -2 -2 -2 -4 -3 -1 1 2 2 2 3 3 3 3 2 2 1 -2 -3 -1 -3 -5 -5 -5 -5 -6 -6 -6 -6 -6 -6 -6 -5 -6 -8 -8 -7 -7 -6

GFSSE_850_dewp_354.txt.gz
Dewpoint
7 8 -3 1 6 8 8 9 8 2 0 0 -0 -0 0 1 2 2 1 1 5 6 7 7 7 7 7 9 9 9 10 9 9 9 5 2 -0 -2 -1 1 9 9 -0
8 9 -3 -1 5 8 9 10 8 4 7 8 8 8 5 3 0 1 2 2 2 4 6 6 7 7 6 8 9 8 7 8 9 9 9 10 5 2 0 -1 -1 1 1
9 9 4 4 9 9 9 9 6 6 8 8 8 7 7 7 7 5 2 2 3 3 3 3 4 5 6 6 6 7 7 7 7 9 10 11 12 7 4 1 0 6 3
11 10 10 8 9 9 10 7 6 7 8 8 7 6 4 3 4 6 6 5 3 3 3 3 3 3 3 3 4 4 5 6 8 10 11 10 11 9 7 5 3 2 3
11 11 9 11 11 10 10 7 8 8 8 7 4 1 -1 -1 -1 1 2 4 5 5 5 4 3 3 4 5 4 4 6 8 9 11 11 12 12 11 9 8 9 5 2
11 11 9 11 11 10 9 9 8 7 6 3 -2 -6 -7 -7 -7 -6 -4 -2 1 3 4 5 6 6 6 6 6 6 8 8 10 10 12 11 10 10 10 10 8 7 6
10 10 10 7 8 10 8 8 6 4 1 -5 -11 -11 -10 -10 -11 -11 -11 -11 -7 -3 -1 1 2 4 6 7 7 7 8 8 8 8 8 10 9 10 10 11 11 10 9
9 9 9 5 6 3 5 6 4 -1 -6 -12 -11 -10 -7 -6 -6 -5 -6 -7 -9 -10 -9 -8 -7 -5 -2 0 3 4 5 5 6 7 7 8 -2 -1 4 10 10 10 10
8 6 8 8 -2 4 5 4 1 -4 -8 -8 -7 -6 -5 -4 -3 -3 -4 -4 -5 -6 -7 -7 -7 -7 -7 -7 -8 -8 -7 0 3 5 5 7 2 -0 -5 -7 5 10 10
2 -0 1 4 1 4 5 2 -2 -5 -7 -5 -4 -3 -3 -2 -3 -3 -3 -4 -5 -7 -8 -7 -7 -8 -9 -9 -9 -8 0 2 4 4 6 7 6 6 6 -3 -7 -4 4
-3 0 2 -4 -2 1 2 -2 -4 -6 -5 -3 -2 -2 0 3 3 -3 -4 -5 -7 -10 -9 -8 -9 -10 -7 -8 -9 -8 1 3 3 4 5 -1 3 6 6 5 -1 -4 -5
-0 -1 -4 -3 -5 -4 0 -6 -7 -1 2 1 -1 -2 1 -3 -3 -4 -5 -6 -8 -11 -11 -10 -10 -9 -3 -2 -1 -0 2 3 3 4 -0 -1 -1 5 6 5 6 4 1
-1 -1 -0 -8 -8 -0 -0 2 2 2 2 -2 -2 -4 -5 -6 -4 -2 -3 -5 -8 -10 -4 -6 -4 -6 -7 -2 -0 -0 2 2 3 4 -1 -1 -1 -0 5 4 4 4 4
0 0 1 -0 -9 -1 1 1 2 2 2 2 -2 -5 -12 -9 -11 -5 -5 -6 -6 -6 -5 -3 -4 -5 -5 -5 -5 -5 -4 1 1 2 -2 -1 -3 -3 0 2 4 4 4
2 2 1 -3 -6 -9 2 2 3 3 3 0 -1 -7 -8 -8 -8 -7 -6 -5 -4 -4 -3 -3 -3 -3 -3 -3 -3 -4 -4 -5 -4 -1 -1 -8 -9 -8 -5 -3 -1 2 4
3 3 1 -2 -4 -5 1 2 3 3 -1 3 -0 -9 -6 -5 -5 -4 -3 -3 -3 -3 -3 -3 -3 -2 -2 -2 -2 -3 -3 -4 -6 -7 -4 -4 -8 -8 -7 -5 -2 -1 -1
4 3 -7 -3 -2 -3 -1 -1 4 3 3 2 -4 -7 -5 -5 -4 -4 -3 -3 -3 -3 -2 -1 -1 -1 -1 -2 -2 -2 -3 -3 -3 -5 -4 -5 -6 -7 -10 -8 -7 -5 -3
4 -1 -7 -4 -2 -4 1 1 4 3 3 2 -4 -5 -5 -5 -5 -4 -3 -3 -3 -3 -2 -2 -1 -1 -1 -1 -1 -2 -3 -3 -3 -4 -4 -6 -6 -7 -8 -9 -14 -14 -11
5 1 -5 -7 -4 -3 -4 3 4 -0 3 2 -5 -6 -6 -6 -5 -4 -4 -3 -2 -1 -1 0 1 1 0 -0 -2 -2 -2 -2 -3 -4 -4 -5 -5 -6 -7 -7 -10 -11 -13
5 2 -3 -6 -4 -4 -2 -1 4 4 4 -1 -2 -3 -4 -5 -5 -4 -3 -2 0 1 2 1 1 1 0 0 -1 -1 -1 -2 -3 -3 -4 -5 -5 -6 -6 -6 -7 -8 -8
6 3 -1 -6 -6 -4 2 2 3 3 3 2 -2 -3 -3 -4 -4 -4 -3 1 2 3 2 1 1 1 0 0 -1 -1 -2 -2 -2 -3 -5 -5 -5 -5 -6 -6 -6 -7 -8
6 5 -0 -2 -8 -0 2 1 1 2 2 2 -5 -5 -5 -5 -3 -3 -2 2 3 2 2 1 0 1 1 -0 -1 -2 -3 -5 -4 -8 -5 -7 -5 -5 -7 -6 -6 -6 -6
7 6 2 -2 -6 -1 2 2 3 3 1 -2 -0 1 -2 0 1 -1 1 3 2 1 1 0 0 1 0 -1 -1 -2 -4 -6 -7 -8 -9 -8 -7 -7 -7 -7 -9 -6 -6
7 6 4 -1 -4 -3 1 3 4 3 3 3 3 2 2 2 2 1 2 2 1 1 1 0 1 0 -1 -2 -3 -4 -5 -6 -8 -8 -9 -11 -11 -11 -10 -9 -10 -7 -6
7 6 5 -1 -2 -6 -8 3 3 3 3 4 4 2 2 2 3 2 2 2 1 1 1 1 2 -2 -4 -5 -8 -9 -11 -12 -12 -11 -12 -13 -14 -14 -13 -12 -9 -8 -6
7 6 5 -0 -1 -5 -7 1 4 4 3 4 3 2 2 3 3 3 2 2 1 1 1 2 -1 -5 -10 -8 -11 -11 -12 -12 -13 -13 -13 -14 -13 -13 -13 -12 -10 -9 -9